contact:dominique.lefevre@mio.osupytheas.fr, maurice.libes@osupytheas.fr, didier.mallarino@osupytheas.fr
Project:EMSO http://www.emso-fr.org/EMSO-France
Depth: 2436.0 m
Title:EMSO Ligure Ouest : Data MII capteur AQUADOPP
Date,Latitude,Longitude,X_East,Y_North,Z_Up,Amplitude_X,Amplitude_Y,Amplitude_Z,Batterie,SoundSpeed,Heading,Pitch,Roll,Pressure,TIS,Speed,Direction
, degrees North, degrees East, m.s-1, m.s-1,m.s-1, 1, 1, 1, Volt, m.s-1, degree, degree, degree, dbar, degree_C, m.s-1, degree
2020-05-22T00:04:03,42.805,6.029,0.009,-0.004,-0.014,107.0,107.0,102.0,13.4,1505.3,324.2,-0.7,1.8,2470.358,13.31,0.009,114.0
2020-05-22T00:07:03,42.805,6.029,0.034,-0.007,-0.01,105.0,105.0,102.0,13.4,1505.3,327.5,-0.7,1.8,2470.301,13.31,0.034,101.6
2020-05-22T00:10:03,42.805,6.029,0.024,-0.031,-0.013,106.0,107.0,102.0,13.4,1505.3,327.8,-0.7,1.8,2470.295,13.32,0.039,142.3
2020-05-22T00:13:03,42.805,6.029,0.023,-0.023,-0.03,104.0,105.0,103.0,13.4,1505.3,326.7,-0.7,1.8,2470.327,13.32,0.032,135.0
2020-05-22T00:16:03,42.805,6.029,0.042,-0.018,-0.008,104.0,106.0,102.0,13.4,1505.3,325.9,-0.7,1.8,2470.283,13.32,0.045,113.2
2020-05-22T00:19:03,42.805,6.029,0.04,-0.015,-0.013,104.0,106.0,102.0,13.4,1505.3,324.5,-0.7,1.8,2470.317,13.32,0.042,110.6
2020-05-22T00:22:03,42.805,6.029,0.022,-0.005,-0.027,106.0,106.0,102.0,13.3,1505.3,324.5,-0.7,1.9,2470.277,13.33,0.022,102.8
2020-05-22T00:25:03,42.805,6.029,0.024,-0.021,-0.002,104.0,107.0,101.0,13.4,1505.3,327.1,-0.7,1.8,2470.338,13.33,0.031,131.2
2020-05-22T00:28:03,42.805,6.029,0.008,-0.006,-0.019,105.0,106.0,102.0,13.4,1505.3,327.0,-0.7,1.8,2470.258,13.33,0.01,126.9
2020-05-22T00:31:03,42.805,6.029,0.035,-0.008,0.0,104.0,106.0,102.0,13.4,1505.3,325.4,-0.7,1.8,2470.258,13.33,0.035,102.9
2020-05-22T00:34:03,42.805,6.029,0.0,-0.026,-0.041,104.0,106.0,101.0,13.4,1505.3,327.0,-0.7,1.9,2470.29,13.33,0.026,180.0
2020-05-22T00:37:03,42.805,6.029,0.026,-0.035,-0.022,104.0,107.0,101.0,13.4,1505.3,326.9,-0.7,1.8,2470.264,13.33,0.043,143.4
2020-05-22T00:40:03,42.805,6.029,0.026,-0.011,-0.036,104.0,107.0,101.0,13.4,1505.3,324.1,-0.7,1.8,2470.293,13.33,0.028,112.9
2020-05-22T00:43:03,42.805,6.029,0.041,-0.045,-0.019,103.0,106.0,102.0,13.4,1505.3,323.7,-0.7,1.9,2470.268,13.33,0.06,137.7
2020-05-22T00:46:03,42.805,6.029,0.049,-0.019,0.021,104.0,106.0,102.0,13.4,1505.3,323.4,-0.7,1.8,2470.264,13.33,0.052,111.2
2020-05-22T00:49:03,42.805,6.029,0.007,-0.025,-0.038,103.0,106.0,101.0,13.4,1505.3,326.6,-0.8,1.8,2470.264,13.33,0.025,164.4
2020-05-22T00:52:03,42.805,6.029,0.014,-0.016,0.001,105.0,105.0,102.0,13.4,1505.3,324.5,-0.7,1.8,2470.262,13.33,0.021,138.8
2020-05-22T00:55:03,42.805,6.029,0.014,-0.006,-0.025,104.0,105.0,101.0,13.4,1505.3,326.5,-0.7,1.8,2470.27,13.33,0.015,113.2
2020-05-22T00:58:03,42.805,6.029,0.028,-0.014,-0.021,103.0,105.0,102.0,13.4,1505.3,326.3,-0.7,1.9,2470.222,13.33,0.031,116.6
2020-05-22T01:04:03,42.805,6.029,0.053,-0.012,0.017,105.0,107.0,103.0,13.4,1505.3,326.5,-0.7,1.9,2470.339,13.31,0.054,102.8
2020-05-22T01:07:03,42.805,6.029,0.015,-0.03,-0.031,107.0,106.0,103.0,13.4,1505.3,323.0,-0.7,1.8,2470.263,13.31,0.033,153.4
2020-05-22T01:10:03,42.805,6.029,0.015,0.007,-0.006,103.0,107.0,102.0,13.4,1505.3,325.3,-0.7,1.8,2470.267,13.32,0.016,65.0
2020-05-22T01:13:03,42.805,6.029,0.046,-0.027,0.008,105.0,105.0,101.0,13.3,1505.3,324.1,-0.7,1.9,2470.292,13.32,0.053,120.4
2020-05-22T01:16:03,42.805,6.029,0.042,-0.013,-0.002,105.0,106.0,102.0,13.3,1505.3,328.4,-0.7,1.9,2470.3,13.32,0.043,107.2
2020-05-22T01:19:03,42.805,6.029,-0.013,-0.009,-0.05,105.0,107.0,102.0,13.4,1505.3,325.7,-0.7,1.9,2470.244,13.32,0.015,235.3
2020-05-22T01:22:03,42.805,6.029,0.042,-0.03,-0.001,104.0,107.0,101.0,13.4,1505.3,324.5,-0.7,1.8,2470.262,13.32,0.051,125.5
2020-05-22T01:25:03,42.805,6.029,0.0,-0.02,-0.031,105.0,106.0,102.0,13.4,1505.3,328.3,-0.7,1.8,2470.306,13.33,0.02,180.0
2020-05-22T01:31:03,42.805,6.029,0.034,-0.019,-0.01,103.0,106.0,102.0,13.3,1505.3,328.2,-0.8,1.9,2470.326,13.31,0.038,119.2
2020-05-22T01:34:03,42.805,6.029,0.032,-0.002,-0.029,104.0,106.0,101.0,13.3,1505.3,327.0,-0.7,1.8,2470.278,13.31,0.032,93.6
2020-05-22T01:37:03,42.805,6.029,0.027,-0.009,-0.008,104.0,106.0,101.0,13.4,1505.3,327.8,-0.7,1.8,2470.259,13.32,0.028,108.4
2020-05-22T01:40:03,42.805,6.029,0.002,-0.014,-0.027,102.0,105.0,101.0,13.3,1505.3,326.7,-0.7,1.9,2470.299,13.32,0.014,171.9
2020-05-22T01:43:03,42.805,6.029,0.01,-0.017,-0.006,105.0,105.0,101.0,13.4,1505.3,327.9,-0.7,1.8,2470.295,13.32,0.019,149.5
2020-05-22T01:46:03,42.805,6.029,0.014,-0.012,-0.03,103.0,105.0,101.0,13.3,1505.3,326.7,-0.7,1.8,2470.295,13.32,0.018,130.6
2020-05-22T01:49:03,42.805,6.029,0.016,-0.019,-0.033,103.0,105.0,101.0,13.4,1505.3,327.5,-0.8,1.8,2470.274,13.33,0.024,139.9
2020-05-22T01:52:03,42.805,6.029,0.032,0.0,-0.002,104.0,105.0,100.0,13.4,1505.3,323.5,-0.7,1.9,2470.288,13.33,0.032,90.0
2020-05-22T01:55:03,42.805,6.029,0.03,-0.01,0.005,102.0,106.0,101.0,13.4,1505.3,324.0,-0.7,1.8,2470.284,13.33,0.031,108.4
2020-05-22T01:58:03,42.805,6.029,0.024,-0.011,-0.039,101.0,105.0,101.0,13.3,1505.3,324.5,-0.7,1.8,2470.253,13.33,0.026,114.6
2020-05-22T02:04:03,42.805,6.029,0.016,-0.004,-0.01,103.0,104.0,101.0,13.3,1505.3,325.5,-0.7,1.8,2470.322,13.31,0.016,104.0
2020-05-22T02:07:03,42.805,6.029,0.026,0.014,0.01,103.0,104.0,101.0,13.3,1505.3,327.3,-0.7,1.9,2470.295,13.31,0.029,61.7
2020-05-22T02:10:03,42.805,6.029,0.011,0.005,-0.03,102.0,105.0,101.0,13.4,1505.3,325.6,-0.7,1.8,2470.317,13.32,0.012,65.6
2020-05-22T02:13:03,42.805,6.029,0.025,-0.005,-0.03,103.0,106.0,101.0,13.3,1505.3,325.9,-0.7,1.8,2470.293,13.32,0.025,101.3
2020-05-22T02:16:03,42.805,6.029,0.003,-0.004,-0.028,103.0,105.0,101.0,13.4,1505.3,324.1,-0.7,1.8,2470.298,13.32,0.005,143.1
2020-05-22T02:19:03,42.805,6.029,0.015,-0.012,-0.011,102.0,105.0,101.0,13.3,1505.3,324.8,-0.7,1.8,2470.33,13.32,0.019,128.7
2020-05-22T02:22:03,42.805,6.029,-0.01,-0.023,-0.014,103.0,106.0,101.0,13.4,1505.3,324.6,-0.7,1.8,2470.291,13.33,0.025,203.5
2020-05-22T02:25:03,42.805,6.029,0.003,-0.009,-0.071,104.0,107.0,100.0,13.4,1505.3,328.0,-0.7,1.8,2470.28,13.33,0.009,161.6
2020-05-22T02:28:03,42.805,6.029,0.009,-0.016,-0.05,103.0,106.0,101.0,13.3,1505.3,322.9,-0.8,1.8,2470.314,13.33,0.018,150.6
2020-05-22T02:31:03,42.805,6.029,0.006,-0.019,-0.048,103.0,105.0,102.0,13.4,1505.3,326.6,-0.7,1.9,2470.276,13.33,0.019,162.5
2020-05-22T02:34:03,42.805,6.029,0.022,-0.016,0.003,104.0,106.0,101.0,13.3,1505.3,325.8,-0.7,1.8,2470.291,13.33,0.027,126.0
2020-05-22T02:37:03,42.805,6.029,0.014,-0.002,-0.028,103.0,105.0,101.0,13.3,1505.3,327.6,-0.7,1.9,2470.306,13.33,0.014,98.1
2020-05-22T02:40:03,42.805,6.029,0.015,-0.027,-0.004,103.0,105.0,101.0,13.3,1505.3,323.2,-0.7,1.9,2470.312,13.33,0.03,150.9
2020-05-22T02:43:03,42.805,6.029,0.018,0.003,-0.026,104.0,106.0,101.0,13.4,1505.3,325.4,-0.7,1.9,2470.29,13.33,0.018,80.5
2020-05-22T02:46:03,42.805,6.029,0.035,-0.015,-0.001,104.0,106.0,100.0,13.3,1505.3,324.2,-0.7,1.8,2470.291,13.33,0.038,113.2
2020-05-22T02:49:03,42.805,6.029,0.038,-0.007,-0.008,104.0,106.0,101.0,13.3,1505.3,325.0,-0.7,1.8,2470.277,13.33,0.038,100.4
2020-05-22T02:52:03,42.805,6.029,0.045,0.0,-0.045,102.0,105.0,102.0,13.4,1505.3,324.3,-0.7,1.8,2470.283,13.33,0.045,90.0
2020-05-22T02:55:03,42.805,6.029,-0.019,-0.007,-0.039,103.0,106.0,101.0,13.3,1505.3,325.0,-0.7,1.9,2470.288,13.33,0.02,249.8
2020-05-22T02:58:03,42.805,6.029,0.019,-0.005,-0.017,102.0,105.0,101.0,13.4,1505.3,325.4,-0.7,1.8,2470.264,13.33,0.019,104.7
2020-05-22T03:04:03,42.805,6.029,0.026,-0.017,-0.005,105.0,106.0,101.0,13.4,1505.3,327.8,-0.8,1.8,2470.307,13.31,0.031,123.2
2020-05-22T03:07:03,42.805,6.029,0.025,-0.001,-0.025,106.0,106.0,101.0,13.3,1505.3,322.9,-0.7,1.8,2470.294,13.31,0.025,92.3
2020-05-22T03:10:03,42.805,6.029,0.045,-0.014,0.005,103.0,106.0,101.0,13.3,1505.3,324.0,-0.7,1.9,2470.334,13.32,0.047,107.3
2020-05-22T03:13:03,42.805,6.029,0.01,-0.001,-0.003,104.0,107.0,101.0,13.4,1505.3,325.4,-0.7,1.8,2470.288,13.32,0.01,95.7
2020-05-22T03:16:03,42.805,6.029,0.033,-0.018,-0.064,104.0,106.0,102.0,13.4,1505.3,323.8,-0.7,1.8,2470.315,13.32,0.037,118.6
2020-05-22T03:19:03,42.805,6.029,0.016,0.007,-0.008,104.0,107.0,101.0,13.4,1505.3,323.2,-0.7,1.8,2470.372,13.33,0.017,66.4
2020-05-22T03:22:03,42.805,6.029,0.023,-0.027,-0.039,104.0,106.0,101.0,13.4,1505.3,327.7,-0.7,1.8,2470.314,13.33,0.035,139.6
2020-05-22T03:25:03,42.805,6.029,0.001,-0.005,-0.036,102.0,106.0,102.0,13.4,1505.3,328.4,-0.7,1.8,2470.352,13.33,0.005,168.7
2020-05-22T03:28:03,42.805,6.029,0.036,-0.016,-0.007,103.0,107.0,100.0,13.4,1505.3,328.0,-0.7,1.8,2470.322,13.33,0.039,114.0
2020-05-22T03:31:03,42.805,6.029,0.007,-0.008,-0.061,101.0,106.0,102.0,13.4,1505.3,328.0,-0.7,1.8,2470.34,13.33,0.01,138.8
2020-05-22T03:34:03,42.805,6.029,0.021,-0.004,0.0,103.0,106.0,100.0,13.3,1505.3,327.3,-0.7,1.8,2470.307,13.33,0.021,100.8
2020-05-22T03:37:03,42.805,6.029,0.018,-0.006,-0.009,104.0,105.0,102.0,13.3,1505.3,325.6,-0.7,1.8,2470.336,13.33,0.018,108.4
2020-05-22T03:40:03,42.805,6.029,0.014,-0.018,-0.06,105.0,106.0,101.0,13.4,1505.3,323.6,-0.7,1.8,2470.314,13.33,0.022,142.1
2020-05-22T03:43:03,42.805,6.029,0.053,-0.028,0.014,104.0,105.0,101.0,13.4,1505.3,325.2,-0.7,1.8,2470.32,13.33,0.059,117.9
2020-05-22T03:46:03,42.805,6.029,0.029,-0.006,0.001,103.0,106.0,101.0,13.4,1505.3,326.6,-0.7,1.9,2470.317,13.33,0.029,101.7
2020-05-22T03:49:03,42.805,6.029,0.02,-0.019,0.017,103.0,105.0,101.0,13.4,1505.3,328.4,-0.7,1.8,2470.316,13.33,0.027,133.5
2020-05-22T03:52:03,42.805,6.029,0.002,-0.002,-0.04,103.0,107.0,101.0,13.4,1505.3,328.3,-0.7,1.8,2470.389,13.33,0.002,135.0
2020-05-22T03:55:03,42.805,6.029,0.023,-0.003,-0.004,103.0,105.0,102.0,13.4,1505.3,328.2,-0.7,1.8,2470.325,13.33,0.023,97.4
2020-05-22T03:58:03,42.805,6.029,0.022,-0.008,-0.018,105.0,105.0,103.0,13.4,1505.3,327.6,-0.7,1.8,2470.303,13.33,0.023,110.0
2020-05-22T04:04:03,42.805,6.029,0.022,0.0,0.012,103.0,107.0,101.0,13.3,1505.3,326.7,-0.7,1.8,2470.387,13.31,0.022,90.0
2020-05-22T04:07:03,42.805,6.029,0.037,-0.005,-0.006,104.0,105.0,102.0,13.3,1505.3,328.2,-0.7,1.8,2470.329,13.32,0.037,97.7
2020-05-22T04:10:03,42.805,6.029,0.027,-0.007,0.017,104.0,106.0,102.0,13.4,1505.3,324.9,-0.7,1.8,2470.361,13.32,0.027,104.5
2020-05-22T04:13:03,42.805,6.029,0.0,-0.002,-0.004,104.0,104.0,102.0,13.4,1505.3,325.7,-0.7,1.9,2470.371,13.32,0.002,180.0
2020-05-22T04:16:03,42.805,6.029,0.009,-0.019,-0.028,105.0,105.0,102.0,13.4,1505.3,323.3,-0.7,1.8,2470.354,13.33,0.021,154.7
2020-05-22T04:19:03,42.805,6.029,0.027,-0.004,0.006,105.0,105.0,102.0,13.4,1505.3,327.9,-0.7,1.8,2470.337,13.33,0.027,98.4
2020-05-22T04:22:03,42.805,6.029,0.004,-0.013,-0.042,102.0,105.0,102.0,13.4,1505.3,324.4,-0.7,1.8,2470.35,13.33,0.013,162.9
2020-05-22T04:25:03,42.805,6.029,-0.018,-0.02,-0.069,103.0,106.0,102.0,13.4,1505.3,326.4,-0.7,1.8,2470.351,13.33,0.026,222.0
2020-05-22T04:28:03,42.805,6.029,0.012,-0.013,-0.004,104.0,106.0,102.0,13.4,1505.3,323.1,-0.7,1.8,2470.36,13.33,0.017,137.3
2020-05-22T04:31:03,42.805,6.029,0.016,-0.034,-0.071,103.0,106.0,102.0,13.3,1505.3,328.4,-0.7,1.8,2470.379,13.33,0.037,154.8
2020-05-22T04:34:03,42.805,6.029,0.003,0.0,-0.018,105.0,105.0,102.0,13.4,1505.3,324.8,-0.7,1.8,2470.349,13.33,0.003,90.0
2020-05-22T04:37:03,42.805,6.029,0.016,-0.008,-0.012,103.0,107.0,102.0,13.4,1505.3,327.0,-0.7,1.8,2470.326,13.33,0.017,116.6
2020-05-22T04:40:03,42.805,6.029,-0.005,-0.016,-0.008,105.0,105.0,101.0,13.4,1505.3,325.3,-0.7,1.8,2470.381,13.33,0.016,197.4
2020-05-22T04:43:03,42.805,6.029,0.001,-0.008,-0.033,103.0,105.0,102.0,13.4,1505.3,325.4,-0.7,1.8,2470.401,13.33,0.008,172.9
2020-05-22T04:46:03,42.805,6.029,0.037,0.009,0.015,104.0,106.0,101.0,13.4,1505.3,326.3,-0.7,1.8,2470.365,13.33,0.038,76.3
2020-05-22T04:49:03,42.805,6.029,0.008,-0.032,-0.051,103.0,107.0,103.0,13.4,1505.3,323.5,-0.7,1.9,2470.358,13.33,0.032,166.0
2020-05-22T04:52:03,42.805,6.029,-0.006,-0.013,-0.038,104.0,106.0,102.0,13.4,1505.3,324.5,-0.7,1.8,2470.355,13.33,0.014,204.8
2020-05-22T04:55:03,42.805,6.029,-0.015,-0.005,-0.042,105.0,106.0,102.0,13.4,1505.3,326.6,-0.7,1.8,2470.385,13.33,0.015,251.6
2020-05-22T04:58:03,42.805,6.029,0.035,-0.015,-0.007,105.0,105.0,102.0,13.3,1505.3,325.4,-0.7,1.8,2470.346,13.33,0.038,113.2
2020-05-22T05:04:03,42.805,6.029,0.036,-0.004,-0.028,102.0,106.0,101.0,13.4,1505.3,326.4,-0.7,1.8,2470.413,13.31,0.036,96.3
2020-05-22T05:07:03,42.805,6.029,0.023,0.004,-0.008,102.0,107.0,102.0,13.4,1505.3,327.9,-0.7,1.8,2470.404,13.32,0.023,80.1
2020-05-22T05:10:03,42.805,6.029,-0.004,-0.025,-0.039,103.0,106.0,103.0,13.4,1505.3,326.0,-0.7,1.8,2470.43,13.32,0.025,189.1
2020-05-22T05:13:03,42.805,6.029,0.01,-0.012,-0.022,105.0,105.0,101.0,13.4,1505.3,328.3,-0.7,1.8,2470.418,13.32,0.015,140.2
2020-05-22T05:16:03,42.805,6.029,0.022,-0.013,0.001,103.0,105.0,102.0,13.4,1505.3,323.9,-0.7,1.9,2470.402,13.33,0.025,120.6
2020-05-22T05:19:03,42.805,6.029,0.024,0.011,-0.017,101.0,105.0,101.0,13.3,1505.3,326.0,-0.7,1.9,2470.417,13.33,0.026,65.4
2020-05-22T05:22:03,42.805,6.029,-0.005,-0.023,-0.057,104.0,105.0,102.0,13.3,1505.3,324.5,-0.7,1.8,2470.412,13.33,0.023,192.3
2020-05-22T05:25:03,42.805,6.029,0.024,-0.008,-0.022,101.0,106.0,101.0,13.4,1505.3,327.2,-0.7,1.8,2470.43,13.33,0.025,108.4
2020-05-22T05:28:03,42.805,6.029,0.012,-0.005,-0.02,102.0,105.0,102.0,13.4,1505.3,328.7,-0.7,1.8,2470.393,13.33,0.013,112.6
2020-05-22T05:31:03,42.805,6.029,0.001,-0.015,-0.057,104.0,105.0,101.0,13.4,1505.3,325.3,-0.7,1.9,2470.435,13.33,0.015,176.2
2020-05-22T05:34:03,42.805,6.029,0.042,-0.009,0.026,105.0,106.0,101.0,13.4,1505.3,325.5,-0.7,1.8,2470.404,13.33,0.042,102.1
2020-05-22T05:37:03,42.805,6.029,0.076,0.007,0.052,104.0,106.0,102.0,13.4,1505.3,326.5,-0.7,1.8,2470.416,13.33,0.076,84.7
2020-05-22T05:40:03,42.805,6.029,0.041,0.0,0.016,105.0,106.0,102.0,13.4,1505.3,323.3,-0.7,1.8,2470.405,13.33,0.041,90.0
2020-05-22T05:43:03,42.805,6.029,0.058,0.011,0.066,102.0,106.0,102.0,13.4,1505.3,326.0,-0.7,1.8,2470.472,13.33,0.059,79.3
2020-05-22T05:46:03,42.805,6.029,0.014,0.01,0.013,103.0,106.0,102.0,13.4,1505.3,323.5,-0.7,1.8,2470.413,13.33,0.017,54.5
2020-05-22T05:49:03,42.805,6.029,0.004,-0.015,-0.005,104.0,105.0,101.0,13.4,1505.3,325.8,-0.7,1.8,2470.405,13.33,0.015,165.1
2020-05-22T05:52:03,42.805,6.029,0.002,-0.011,-0.037,104.0,107.0,101.0,13.4,1505.3,325.5,-0.7,1.8,2470.384,13.33,0.011,169.7
2020-05-22T05:55:03,42.805,6.029,0.027,-0.013,0.016,103.0,107.0,101.0,13.4,1505.3,326.4,-0.7,1.8,2470.436,13.33,0.029,115.7
2020-05-22T05:58:03,42.805,6.029,0.028,0.003,0.012,104.0,107.0,101.0,13.4,1505.3,324.7,-0.7,1.8,2470.459,13.33,0.028,83.9
2020-05-22T06:04:03,42.805,6.029,-0.028,0.002,-0.055,103.0,107.0,102.0,13.4,1505.3,324.5,-0.7,1.8,2470.51,13.31,0.028,274.1
2020-05-22T06:07:03,42.805,6.029,0.001,0.004,-0.023,104.0,107.0,102.0,13.4,1505.3,326.7,-0.7,1.9,2470.419,13.32,0.004,14.0
2020-05-22T06:10:03,42.805,6.029,-0.001,0.015,-0.029,103.0,107.0,101.0,13.4,1505.3,327.8,-0.7,1.8,2470.442,13.32,0.015,356.2
2020-05-22T06:13:03,42.805,6.029,-0.024,-0.007,-0.045,105.0,105.0,103.0,13.3,1505.3,323.1,-0.7,1.8,2470.409,13.32,0.025,253.7
2020-05-22T06:16:03,42.805,6.029,0.021,-0.007,-0.053,105.0,105.0,102.0,13.4,1505.3,325.4,-0.7,1.8,2470.43,13.33,0.022,108.4
2020-05-22T06:19:03,42.805,6.029,-0.016,0.001,-0.051,104.0,107.0,100.0,13.3,1505.3,328.2,-0.7,1.8,2470.443,13.33,0.016,273.6
2020-05-22T06:22:03,42.805,6.029,0.013,-0.009,-0.054,106.0,106.0,101.0,13.4,1505.3,325.4,-0.7,1.8,2470.436,13.33,0.015,124.7
2020-05-22T06:25:03,42.805,6.029,-0.018,0.001,-0.06,106.0,106.0,100.0,13.3,1505.3,325.9,-0.7,1.8,2470.409,13.33,0.018,273.2
2020-05-22T06:28:03,42.805,6.029,0.012,0.0,-0.027,104.0,106.0,101.0,13.3,1505.3,327.7,-0.7,1.8,2470.448,13.33,0.012,90.0
2020-05-22T06:31:03,42.805,6.029,0.003,-0.007,-0.009,104.0,106.0,100.0,13.4,1505.3,327.7,-0.7,1.8,2470.475,13.33,0.007,156.8
2020-05-22T06:34:03,42.805,6.029,0.022,-0.007,0.001,105.0,106.0,102.0,13.4,1505.3,327.0,-0.7,1.9,2470.455,13.33,0.023,107.6
2020-05-22T06:37:03,42.805,6.029,0.008,-0.002,0.001,104.0,106.0,103.0,13.3,1505.3,324.9,-0.7,1.9,2470.425,13.33,0.008,104.0
2020-05-22T06:40:03,42.805,6.029,0.018,0.0,-0.01,105.0,105.0,102.0,13.3,1505.3,326.9,-0.7,1.9,2470.414,13.33,0.018,90.0
2020-05-22T06:43:03,42.805,6.029,0.018,0.0,-0.006,103.0,107.0,102.0,13.3,1505.3,327.0,-0.7,1.9,2470.442,13.33,0.018,90.0
2020-05-22T06:46:03,42.805,6.029,0.023,-0.003,0.005,104.0,106.0,102.0,13.4,1505.3,323.3,-0.7,1.9,2470.397,13.33,0.023,97.4
2020-05-22T06:49:03,42.805,6.029,0.006,-0.019,-0.026,105.0,107.0,102.0,13.4,1505.3,326.0,-0.7,1.8,2470.433,13.33,0.019,162.5
2020-05-22T06:52:03,42.805,6.029,0.017,0.003,-0.032,103.0,106.0,102.0,13.3,1505.3,327.1,-0.7,1.8,2470.466,13.33,0.017,80.0
2020-05-22T06:55:03,42.805,6.029,0.016,0.0,0.008,103.0,106.0,102.0,13.4,1505.3,324.5,-0.7,1.9,2470.447,13.33,0.016,90.0
2020-05-22T06:58:03,42.805,6.029,-0.005,0.0,-0.021,105.0,106.0,102.0,13.3,1505.3,326.4,-0.7,1.8,2470.452,13.33,0.005,270.0
2020-05-22T07:04:03,42.805,6.029,0.008,0.008,-0.008,104.0,105.0,102.0,13.4,1505.3,327.9,-0.8,1.8,2470.464,13.31,0.011,45.0
2020-05-22T07:07:03,42.805,6.029,-0.001,0.0,-0.024,104.0,107.0,103.0,13.4,1505.3,326.9,-0.7,1.9,2470.466,13.32,0.001,270.0
2020-05-22T07:10:03,42.805,6.029,-0.006,-0.013,-0.055,104.0,107.0,101.0,13.4,1505.3,322.9,-0.7,1.8,2470.476,13.32,0.014,204.8
2020-05-22T07:13:03,42.805,6.029,-0.004,-0.009,-0.014,104.0,107.0,103.0,13.4,1505.3,327.9,-0.7,1.8,2470.428,13.32,0.009,204.0
2020-05-22T07:16:03,42.805,6.029,0.003,-0.006,-0.031,103.0,106.0,102.0,13.4,1505.3,324.7,-0.7,1.8,2470.457,13.33,0.006,153.4
2020-05-22T07:19:03,42.805,6.029,0.014,0.019,-0.026,105.0,107.0,101.0,13.4,1505.3,326.5,-0.7,1.8,2470.451,13.33,0.023,36.4
2020-05-22T07:22:03,42.805,6.029,0.01,0.01,0.002,103.0,107.0,102.0,13.4,1505.3,323.6,-0.7,1.8,2470.449,13.33,0.014,45.0
2020-05-22T07:25:03,42.805,6.029,0.008,-0.007,-0.018,105.0,104.0,101.0,13.4,1505.3,324.3,-0.7,1.8,2470.424,13.33,0.01,131.2
2020-05-22T07:28:03,42.805,6.029,0.01,-0.014,-0.044,104.0,105.0,102.0,13.3,1505.3,324.6,-0.7,1.8,2470.383,13.33,0.017,144.5
2020-05-22T07:31:03,42.805,6.029,0.0,-0.012,-0.012,105.0,106.0,102.0,13.3,1505.3,325.1,-0.8,1.8,2470.42,13.33,0.012,180.0
2020-05-22T07:34:03,42.805,6.029,-0.005,-0.003,-0.035,106.0,105.0,102.0,13.4,1505.3,328.3,-0.7,1.8,2470.44,13.33,0.005,239.0
2020-05-22T07:37:03,42.805,6.029,0.023,-0.011,-0.001,104.0,107.0,102.0,13.4,1505.3,326.9,-0.7,1.8,2470.432,13.33,0.025,115.6
2020-05-22T07:40:03,42.805,6.029,0.002,-0.001,-0.03,104.0,106.0,103.0,13.3,1505.3,326.1,-0.7,1.8,2470.435,13.33,0.002,116.6
2020-05-22T07:43:03,42.805,6.029,-0.004,-0.002,-0.047,103.0,106.0,102.0,13.4,1505.3,325.1,-0.7,1.8,2470.437,13.33,0.004,243.4
2020-05-22T07:46:03,42.805,6.029,0.0,-0.008,-0.032,105.0,105.0,101.0,13.4,1505.3,328.1,-0.7,1.8,2470.399,13.33,0.008,180.0
2020-05-22T07:49:03,42.805,6.029,-0.001,-0.005,-0.057,103.0,105.0,103.0,13.4,1505.3,325.0,-0.7,1.8,2470.391,13.33,0.005,191.3
2020-05-22T07:52:03,42.805,6.029,0.006,0.0,-0.032,103.0,105.0,102.0,13.4,1505.3,325.4,-0.7,1.9,2470.408,13.33,0.006,90.0
2020-05-22T07:58:03,42.805,6.029,-0.006,-0.003,-0.041,104.0,106.0,102.0,13.3,1505.3,323.9,-0.8,1.8,2470.446,13.31,0.006,243.4
2020-05-22T08:04:03,42.805,6.029,-0.015,-0.007,-0.041,104.0,104.0,101.0,13.4,1505.2,326.4,-0.8,1.8,2470.461,13.3,0.016,245.0
2020-05-22T08:07:03,42.805,6.029,-0.033,0.006,-0.048,103.0,105.0,100.0,13.4,1505.3,327.0,-0.7,1.8,2470.469,13.31,0.033,280.3
2020-05-22T08:10:03,42.805,6.029,-0.029,-0.016,-0.051,104.0,105.0,101.0,13.3,1505.3,324.1,-0.7,1.8,2470.438,13.32,0.033,241.1
2020-05-22T08:13:03,42.805,6.029,-0.01,-0.006,-0.006,103.0,106.0,102.0,13.4,1505.3,324.7,-0.7,1.8,2470.438,13.32,0.011,239.0
2020-05-22T08:16:03,42.805,6.029,-0.035,0.002,-0.064,104.0,108.0,101.0,13.4,1505.3,323.2,-0.7,1.8,2470.451,13.32,0.035,273.3
2020-05-22T08:19:03,42.805,6.029,-0.019,-0.009,-0.061,103.0,106.0,101.0,13.4,1505.3,322.8,-0.7,1.8,2470.435,13.33,0.021,244.7
2020-05-22T08:22:03,42.805,6.029,-0.013,0.0,-0.014,105.0,105.0,101.0,13.3,1505.3,328.1,-0.7,1.8,2470.418,13.33,0.013,270.0
2020-05-22T08:25:03,42.805,6.029,-0.024,0.005,-0.107,104.0,104.0,101.0,13.4,1505.3,327.4,-0.7,1.8,2470.424,13.33,0.024,281.8
2020-05-22T08:28:03,42.805,6.029,-0.02,-0.003,-0.049,104.0,108.0,102.0,13.3,1505.3,325.2,-0.7,1.8,2470.405,13.33,0.02,261.5
2020-05-22T08:31:03,42.805,6.029,-0.043,-0.014,-0.05,104.0,106.0,102.0,13.3,1505.3,325.2,-0.7,1.8,2470.413,13.33,0.045,252.0
2020-05-22T08:34:03,42.805,6.029,-0.029,-0.011,-0.051,104.0,107.0,103.0,13.4,1505.3,324.6,-0.7,1.8,2470.37,13.33,0.031,249.2
2020-05-22T08:37:03,42.805,6.029,-0.054,-0.012,-0.054,104.0,107.0,102.0,13.4,1505.3,326.9,-0.7,1.8,2470.408,13.33,0.055,257.5
2020-05-22T08:40:03,42.805,6.029,-0.072,-0.019,-0.123,104.0,107.0,102.0,13.4,1505.3,323.2,-0.7,1.8,2470.427,13.33,0.074,255.2
2020-05-22T08:43:03,42.805,6.029,-0.061,-0.01,-0.073,104.0,106.0,102.0,13.4,1505.3,327.9,-0.7,1.8,2470.395,13.33,0.061,260.7
2020-05-22T08:46:03,42.805,6.029,-0.042,-0.011,-0.046,103.0,109.0,103.0,13.4,1505.3,325.0,-0.7,1.8,2470.389,13.33,0.043,255.3
2020-05-22T08:49:03,42.805,6.029,-0.064,0.02,-0.056,104.0,107.0,102.0,13.3,1505.3,326.0,-0.7,1.8,2470.386,13.33,0.067,287.4
2020-05-22T08:52:03,42.805,6.029,-0.048,-0.014,-0.088,103.0,105.0,101.0,13.4,1505.3,323.6,-0.7,1.8,2470.374,13.33,0.05,253.7
2020-05-22T08:55:03,42.805,6.029,-0.044,0.0,-0.056,103.0,108.0,101.0,13.3,1505.3,327.6,-0.7,1.8,2470.389,13.33,0.044,270.0
2020-05-22T08:58:03,42.805,6.029,-0.025,-0.018,-0.044,104.0,107.0,102.0,13.4,1505.3,326.8,-0.7,1.9,2470.375,13.33,0.03,234.2
2020-05-22T09:04:03,42.805,6.029,-0.011,0.008,-0.009,104.0,106.0,102.0,13.4,1505.3,326.3,-0.7,1.8,2470.412,13.32,0.013,306.0
2020-05-22T09:07:03,42.805,6.029,-0.024,-0.003,-0.087,105.0,107.0,100.0,13.3,1505.3,324.9,-0.7,1.8,2470.377,13.32,0.024,262.9
2020-05-22T09:10:03,42.805,6.029,-0.006,-0.007,-0.011,105.0,106.0,103.0,13.4,1505.3,328.1,-0.8,1.8,2470.379,13.33,0.009,220.6
2020-05-22T09:13:03,42.805,6.029,-0.006,-0.005,-0.007,104.0,105.0,101.0,13.4,1505.3,326.5,-0.7,1.8,2470.373,13.33,0.007,230.2
2020-05-22T09:16:03,42.805,6.029,-0.017,-0.005,-0.052,104.0,107.0,101.0,13.4,1505.4,328.8,-0.7,1.8,2470.356,13.34,0.017,253.6
2020-05-22T09:19:03,42.805,6.029,-0.029,0.008,-0.034,104.0,105.0,103.0,13.4,1505.4,324.4,-0.7,1.8,2470.386,13.34,0.03,285.4
2020-05-22T09:22:03,42.805,6.029,-0.03,0.006,-0.03,102.0,106.0,101.0,13.3,1505.4,324.4,-0.7,1.8,2470.368,13.34,0.03,281.3
2020-05-22T09:25:03,42.805,6.029,0.0,-0.014,-0.011,103.0,108.0,101.0,13.3,1505.4,328.5,-0.7,1.8,2470.388,13.34,0.014,180.0
2020-05-22T09:28:03,42.805,6.029,0.005,-0.001,-0.043,104.0,107.0,100.0,13.3,1505.4,323.8,-0.7,1.8,2470.358,13.34,0.005,101.3
2020-05-22T09:31:03,42.805,6.029,0.007,0.0,-0.024,104.0,107.0,101.0,13.4,1505.4,325.2,-0.7,1.8,2470.376,13.34,0.007,90.0
2020-05-22T09:34:03,42.805,6.029,0.006,0.0,-0.015,104.0,107.0,101.0,13.4,1505.4,327.1,-0.7,1.8,2470.356,13.34,0.006,90.0
2020-05-22T09:37:03,42.805,6.029,0.022,0.007,-0.006,106.0,106.0,101.0,13.4,1505.4,326.4,-0.7,1.8,2470.343,13.34,0.023,72.4
2020-05-22T09:40:03,42.805,6.029,0.022,0.013,-0.014,103.0,108.0,102.0,13.4,1505.4,323.3,-0.7,1.9,2470.341,13.34,0.025,59.4
2020-05-22T09:43:03,42.805,6.029,-0.021,0.014,-0.042,104.0,105.0,101.0,13.4,1505.4,323.5,-0.7,1.8,2470.361,13.34,0.025,303.7
2020-05-22T09:46:03,42.805,6.029,-0.01,0.008,0.015,104.0,106.0,102.0,13.4,1505.4,324.7,-0.7,1.8,2470.37,13.34,0.012,308.7
2020-05-22T09:49:03,42.805,6.029,-0.001,0.005,-0.044,105.0,106.0,100.0,13.3,1505.4,325.8,-0.7,1.9,2470.357,13.34,0.005,348.7
2020-05-22T09:52:03,42.805,6.029,-0.018,-0.009,-0.041,105.0,106.0,101.0,13.3,1505.4,325.3,-0.7,1.8,2470.354,13.34,0.02,243.4
2020-05-22T09:55:03,42.805,6.029,-0.019,-0.027,-0.049,104.0,107.0,101.0,13.4,1505.4,327.5,-0.7,1.8,2470.363,13.34,0.033,215.1
2020-05-22T09:58:03,42.805,6.029,0.011,0.011,-0.003,104.0,106.0,101.0,13.4,1505.4,323.5,-0.7,1.8,2470.332,13.34,0.015,45.0
2020-05-22T10:04:03,42.805,6.029,0.022,0.0,-0.067,103.0,107.0,101.0,13.4,1505.3,324.2,-0.7,1.8,2470.395,13.32,0.022,90.0